OPS 4682 DEB, 38391

Orbit data source: Space-Track

OPS 4682 DEB, 38391 is space debris in LEO originally from a launch on Sat, 03 Apr 1965 UTC launched from the Air Force Western Test Range (AFWTR). Debris objects in space refer to the collection of defunct objects orbiting the Earth. Examples of debris include non-operational satellites, rocket bodies, and fragments generated from explosions, collisions, or faulty payload assembly.

Loading next visibility...
Identifier
38391, 1965-027CU
Orbit
LEO
Country
Flag of USUS
Related business
Manufacturer
Unknown
Mission
Spacecraft
Bus & Motor
Unknown
Mass
Unknown
Launch date (UTC)
1965-04-03 (61 years ago)
Launch vehicle
Unknown
Launch site
Air Force Western Test Range (AFWTR)
Object type
Payload
Rocket body
Debris
Shape & HBR
Unknown shape, 0.1 m
Radar Cross Section
Small (<0.1 m²)

Expand to show TLE details & history
Last TLE update: 1 day ago

TLE from 1 day ago
0 OPS 4682 DEB
1 38391U 65027CU  25300.61354471 -.00000451  00000-0 -15554-2 0  9999
2 38391  90.2192   3.1388 0039741 308.5368  51.2193 12.98245557569592
Epoch: 2025-10-27T14:43Z
TLE epoch observation values (Epoch: 2025-10-27T14:43:30.262Z)
Latitude
-0.00009°
Longitude
106.04984°
Altitude
1,252.885 km
Speed
7.238 km/s
True Right ascension
00h 12m 33s
True Declination
0° 00' 00"
Sunlit
Object was in full shadow at epoch
Visualization orbit readout
Latitude
Unknown
Longitude
Unknown
Altitude
Unknown
Speed
Unknown
Apparent Right ascension
Unknown
Apparent Declination
Unknown
Sunlit
N/A
Visualization observer readout
Local Sidereal Time
21:13:06
Azimuth
Unknown
Elevation
Unknown
Doppler factor
Unknown
Orbital elements
Apogee altitude
1,296.477 km
Perigee altitude
1,235.719 km
Semi-major axis
7,644.235 km
Eccentricity
0.00397
Inclination
90.2192°
RAAN
3.1388°
Arg. of periapsis
308.5368°
True anomaly
51.57541°
Mean anomaly
51.2193°
Eccentric anomaly
51.39724°
Mean motion
3.24745 °/min
Orbital period
110.86 mins
BSTAR
-0.0015554
Loading maneuver chart data...
Computing Atmospheric mass density...
Loading historical data...
Loading historical data...
Loading historical data...
Loading historical data...
Loading historical data...
Loading historical data...
Loading historical data...

Documentation

Showing up to 5 results
|